Regional Weather Roundup
Issued by NWS Wilmington, NC

Home | Current Version | Previous Version | Text Only | Print | Product List | Glossary On
Versions: 1 2 3 4 5 6 7 8 9 10 11 12 13 14 15 16 17 18 19 20 21 22 23 24 25 26 27 28 29 30 31 32 33 34 35 36 37 38 39 40 41 42 43 44 45 46 47 48 49 50
000
ASUS42 KILM 162110
RWRILM
RWRILM
REGIONAL HOURLY WEATHER ROUNDUP
NATIONAL WEATHER SERVICE WILMINGTON NC
500 PM EDT TUE SEP 16 2014

NOTE: "FAIR" INDICATES FEW OR NO CLOUDS BELOW 12,000 FEET WITH NO
SIGNIFICANT WEATHER AND/OR OBSTRUCTIONS TO VISIBILITY.

...............WFO WILMINGTON COUNTY WARNING AREA...............

......COASTAL NC AND SC COUNTIES......

CITY           SKY/WX    TMP DP  RH WIND       PRES   REMARKS
WILMINGTON     MOSUNNY   80  71  74 SE7       29.95F
SOUTHPORT      MOSUNNY   79  71  76 SE5       29.96S
N MYRTLE BEACH PTSUNNY   84  70  62 S5        29.94F
MYRTLE BEACH   PTSUNNY   86  72  62 S12       29.95F HX  92

......INLAND NC AND SC COUNTIES.......

CITY           SKY/WX    TMP DP  RH WIND       PRES   REMARKS
LUMBERTON      SUNNY     85  66  53 E7        29.94F
ELIZABETHTOWN  SUNNY     84  65  52 NW3       29.96S
WHITEVILLE     SUNNY     83  67  58 NE5       29.95S
FLORENCE       SUNNY     87  67  51 VRB6      29.94F HX  90
DARLINGTON     SUNNY     88  66  48 NE6       29.95F HX  90

....................REST OF NORTH CAROLINA......................

.........EASTERN NC.........

CITY           SKY/WX    TMP DP  RH WIND       PRES   REMARKS
CAPE HATTERAS  SUNNY     78  69  73 SW5       29.95F
JACKSONVILLE   SUNNY     82  66  57 W3        29.95F
MOREHEAD CITY  SUNNY     80  72  76 SW8       29.95F
KENANSVILLE    SUNNY     83  63  50 CALM      29.97F
NEW BERN       SUNNY     87  65  47 W6        29.96S
ELIZABETH CITY CLOUDY    79  64  60 E8        29.96S

.........CENTRAL NC.........

CITY           SKY/WX    TMP DP  RH WIND       PRES   REMARKS
RALEIGH DURHAM MOSUNNY   81  63  54 NE5       29.96F
ROCKY MOUNT    CLOUDY    80  63  55 NW5       29.97S
ROANOKE RAPIDS NOT AVBL
FAYETTEVILLE   SUNNY     86  66  51 N3        29.95F
HOFFMAN        MOSUNNY   86  61  42 CALM      29.96F

.........WESTERN NC.........

CITY           SKY/WX    TMP DP  RH WIND       PRES   REMARKS
CHARLOTTE      MOSUNNY   85  65  51 W3        29.96F
GREENSBORO     PTSUNNY   81  64  57 SE7       29.95F THUNDER
HICKORY        NOT AVBL
BOONE          NOT AVBL
ASHEVILLE      NOT AVBL

.....................REST OF SOUTH CAROLINA.....................

.........EASTERN SC.........

CITY           SKY/WX    TMP DP  RH WIND       PRES   REMARKS
CHARLESTON     TSTM      75  72  88 S7        29.96S FOG
BEAUFORT MCAS  PTSUNNY   82  73  74 NE3       29.95R THUNDER
HILTON HEAD    NOT AVBL

.........CENTRAL SC.........

CITY           SKY/WX    TMP DP  RH WIND       PRES   REMARKS
COLUMBIA       MOSUNNY   90  66  45 N5        29.93F HX  92
ORANGEBURG     PTSUNNY   86  68  54 N3        29.93F
SUMTER SHAW    MOSUNNY   87  67  51 NE6       29.93F HX  90

.........WESTERN SC.........

CITY           SKY/WX    TMP DP  RH WIND       PRES   REMARKS
GREENVILLE     NOT AVBL
ROCK HILL      PTSUNNY   85  66  53 W5        29.96F
ANDERSON       PTSUNNY   86  67  52 SW9       29.95F
CLEMSON        NOT AVBL
GREENWOOD      MOSUNNY   88  66  48 VRB5      29.96F HX  90


...................COASTAL AND OFFSHORE REPORTS..................

................LOCAL PIERS AND NC RESERVE................


STATION/POSITION TIME  SKY/WX   TEMP    WIND        PRES    VSBY
                                AIR SEA DIR/SP/G
                 (UTC)          (F)     (DEG/KT/KT) (MB)    (MI)
JOHNY MRCER PIER 2100            80 83  130/  7/  8 1013.8F
NC RESRV MASNBRO 2000            83     110/  4     1015.0S
OCEAN CREST PIER 2100            79 81   90/ 11/ 13 1013.5F
SPRINGMAID  PIER 2100            82 81  150/  6/  7 1014.1S


................COASTAL AND OFFSHORE BUOYS................


STATION/POSITION TIME  SKY/WX   TEMP    WIND        PRES    VSBY
                                AIR SEA DIR/SP/G
                 (UTC)          (F)     (DEG/KT/KT) (MB)    (MI)
DIMNDSHOAL 41025 2100            77     280/  2/  2 1014.3F
WVE H/P(F/S)=  2/ 8 SWL H/P/D(F/S/D)=  2/ 40/ 8

CAPE LOOKOUT     2000            78     180/  8/  8 1014.5F
ONSLOW BAY 41036 2100            78 82  170/  4/  6 1014.8R
WVE H/P(F/S)=  2/ 8 SWL H/P/D(F/S/D)=  2/ 80/ 8

5 WRITEBCH 41038 2000            76 82  140/  8/ 10   N/A
MASONBORO  41110 2100               82                N/A
WVE H/P(F/S)=  2/13 WND WVE H/P(F/S)=  2/ 7

WILM HARBR 41108 2100               82                N/A
WVE H/P(F/S)=  2/13 WND WVE H/P(F/S)=  2/ 7

27WRITEBCH 41037 2000            75 82   80/  8/  8 1014.5F
FRYING PAN 41013 NOT AVBL
SUNST NRSH 41024 NOT AVBL
CAPRS NRSH 41029 NOT AVBL
EDISTO     41004 2100            80 84  340/  4/  6 1013.9F
WVE H/P(F/S)=  1/ 8 SWL H/P/D(F/S/D)=  2/ 8



..........OFFSHORE BUOYS BEYOND 100 NM OFFSHORE...........
.....IN A TRIANGLE---HAT TO BERMUDA TO BAHAMAS TO HAT.....


STATION/POSITION TIME  SKY/WX   TEMP    WIND        PRES    VSBY
                                AIR SEA DIR/SP/G
                 (UTC)          (F)     (DEG/KT/KT) (MB)    (MI)
150E HAT   41001 NOT AVBL
W BERMUDA  41048 2041            81 82  310/ 17/ 23 1012.7R
WVE H/P(F/S)=  9/14 WND WVE H/P(F/S)=  5/ 6 SWL H/P/D(F/S/D)=  8/100/14

ATLANTIC S 41049 2004            83 85  300/  6/  8 1014.6R
WVE H/P(F/S)=  6/11 WND WVE H/P(F/S)=  2/ 4 SWL H/P/D(F/S/D)=  5/ 80/11

E BAHAMAS  41046 2038            83 85   90/  6/ 10 1014.7F
WVE H/P(F/S)=  7/12 WND WVE H/P(F/S)=  2/ 4 SWL H/P/D(F/S/D)=  7/ 90/12

NE BAHAMAS 41047 1957            82 86  270/  4/  6 1015.7
WVE H/P(F/S)=  5/11 SWL H/P/D(F/S/D)=  5/ 80/11

120E CANVRL41010 2100            79 85  140/  8/ 10 1015.3F
WVE H/P(F/S)=  2/ 8 WND WVE H/P(F/S)=  2/ 3 SWL H/P/D(F/S/D)=  2/ 30/ 8


END



USA.gov is the U.S. government's official web portal to all federal, state and local government web resources and services.